This is the latest recevied weather packets stored in our database for station/object W5ITZ. If no packets are shown the sender has not sent any weather packets the latest 10 day(s).
| Time | Temp. | Humidity | Pressure | Rain* | Wind** | Luminosity | Snow |
|---|---|---|---|---|---|---|---|
| 1777901332 | 20.56° C | 82% | 1016 hPa | 0 mm | - | 121 W/m² | - |
| 1777901029 | 20° C | 82% | 1015.7 hPa | 0 mm | - | 151 W/m² | - |
| 1777900727 | 19.44° C | 83% | 1015.8 hPa | 0 mm | - | 264 W/m² | - |
| 1777900423 | 18.89° C | 85% | 1015.8 hPa | 0 mm | - | 217 W/m² | - |
| 1777900121 | 18.89° C | 85% | 1015.6 hPa | 0 mm | - | 169 W/m² | - |
| 1777899817 | 18.89° C | 86% | 1015.6 hPa | 0 mm | - | 160 W/m² | - |
| 1777899514 | 18.33° C | 87% | 1015.3 hPa | 0 mm | - | 123 W/m² | - |
| 1777899212 | 17.78° C | 88% | 1015.3 hPa | 0 mm | - | 133 W/m² | - |
| 1777898909 | 17.22° C | 87% | 1015.3 hPa | 0 mm | - | 118 W/m² | - |
| 1777898606 | 16.67° C | 88% | 1015.5 hPa | 0 mm | - | 96 W/m² | - |
| 1777898303 | 16.11° C | 88% | 1015.5 hPa | 0 mm | - | 92 W/m² | - |
| 1777898001 | 16.11° C | 89% | 1015.4 hPa | 0 mm | - | 68 W/m² | - |
| 1777897697 | 15.56° C | 89% | 1015.5 hPa | 0 mm | - | 62 W/m² | - |
| 1777897394 | 15.56° C | 89% | 1015.4 hPa | 0 mm | - | 48 W/m² | - |
| 1777897089 | 15.56° C | 88% | 1015.6 hPa | 0 mm | - | 33 W/m² | - |
| 1777896786 | 15.56° C | 88% | 1015.8 hPa | 0 mm | - | 31 W/m² | - |
| 1777896484 | 15.56° C | 88% | 1015.5 hPa | 0 mm | - | 31 W/m² | - |
| 1777896180 | 15.56° C | 88% | 1015.6 hPa | 0 mm | - | 23 W/m² | - |
| 1777895878 | 15° C | 88% | 1015.3 hPa | 0 mm | - | 13 W/m² | - |
| 1777895575 | 15° C | 88% | 1015.5 hPa | 0 mm | - | 9 W/m² | - |
| 1777895273 | 15° C | 87% | 1015.3 hPa | 0 mm | - | 6 W/m² | - |
| 1777894970 | 15.56° C | 87% | 1015.5 hPa | 0 mm | - | 4 W/m² | - |
| 1777894667 | 15.56° C | 87% | 1015.4 hPa | 0 mm | - | 2 W/m² | - |
| 1777894364 | 15.56° C | 87% | 1015.3 hPa | 0 mm | - | 1 W/m² | - |
| 1777894062 | 15.56° C | 88% | 1015.4 hPa | 0 mm | - | 0 W/m² | - |
* Rain latest hour (hover to see other rain measurements)
** Current wind speed in m/s (hover to see current wind gust speed)